Regional Weather Roundup
Issued by NWS

Home | Current Version | Previous Version | Text Only | Print | Product List | Glossary On
Versions: 1 2 3 4 5 6 7 8 9 10 11 12 13 14 15 16 17 18 19 20 21 22 23 24 25 26 27 28 29 30 31 32 33 34 35 36 37 38 39 40 41 42 43 44 45 46 47 48 49 50
000
ASUS43 KLSX 271910
RWRMO

WEATHER SUMMARY FOR MISSOURI
NATIONAL WEATHER SERVICE SPRINGFIELD MO
200 PM CDT TUE JUN 27 2017

NOTE: "FAIR" INDICATES FEW OR NO CLOUDS BELOW 12,000 FEET WITH NO
       SIGNIFICANT WEATHER AND/OR OBSTRUCTIONS TO VISIBILITY.
       CURRENT SKY AND/OR WEATHER CONDITIONS ARE NOT AVAILABLE FOR
       CHILLICOTHE AND FARMINGTON.

MOZ001>031-035>038-043-044-053-054-272000-
...NORTHERN AND WESTERN MISSOURI...

CITY           SKY/WX    TMP DP  RH WIND       PRES   REMARKS
KANSAS CTY INT PTSUNNY   78  63  59 SE13G26   30.02F
KANSAS C DTWN  MOSUNNY   81  62  52 SE13G20   30.01F
LEE`S SUMMIT   MOSUNNY   78  63  59 S10       30.04F
ST JOSEPH      MOSUNNY   78  64  61 SE14      30.02F
CHILLICOTHE      N/A     78  61  55 SE7G20    30.06F
KIRKSVILLE     SUNNY     76  52  43 SE9       30.09F

$$
MOZ066>068-077>081-088>096-101>105-272000-
...SOUTHWEST MISSOURI...

CITY           SKY/WX    TMP DP  RH WIND       PRES   REMARKS
SPRINGFIELD    MOSUNNY   78  64  61 SE6       30.07F
JOPLIN         CLOUDY    82  68  62 SE8       30.04F
BRANSON        PTSUNNY   79  63  57 SE8       30.10F

$$
MOZ032>034-039>042-045>050-055>058-069>072-272000-
...CENTRAL MISSOURI...

CITY           SKY/WX    TMP DP  RH WIND       PRES   REMARKS
COLUMBIA       SUNNY     77  57  50 S10       30.09F
JEFFERSON CITY SUNNY     77  57  50 SE9       30.08F
ROLLA          SUNNY     77  58  51 CALM      30.09F
SEDALIA        MOSUNNY   78  65  63 SE14      30.08F
WARRENSBURG    MOSUNNY   77  61  57 SE10      30.05F
OSAGE BEACH    MOSUNNY   77  62  59 SW7       30.09F

$$
MOZ051-052-059>065-272000-
...EAST CENTRAL MISSOURI...

CITY           SKY/WX    TMP DP  RH WIND       PRES   REMARKS
ST LOUIS INTL  MOSUNNY   80  51  36 SE8       30.11F
SPIRIT OF STL  MOSUNNY   78  52  40 VRB3      30.09F
ST CHARLES     SUNNY     78  51  38 MISG      30.09F

$$
MOZ072>076-082>087-097>100-106>115-272000-
...SOUTH CENTRAL AND SOUTHEAST MISSOURI...

CITY           SKY/WX    TMP DP  RH WIND       PRES   REMARKS
CAPE GIRARDEAU SUNNY     79  55  43 VRB6      30.10F
FARMINGTON     MOSUNNY   78  54  43 CALM      30.12F
POPLAR BLUFF   MOSUNNY   78  60  53 VRB3      30.10F
WEST PLAINS    CLOUDY    75  61  61 S5        30.12F

$$



USA.gov is the U.S. government's official web portal to all federal, state and local government web resources and services.